This is the latest recevied weather packets stored in our database for station/object KD4KKF. If no packets are shown the sender has not sent any weather packets the latest 10 day(s).
| Time | Temp. | Humidity | Pressure | Rain* | Wind** | Luminosity | Snow |
|---|---|---|---|---|---|---|---|
| 1777998332 | 23.33° C | 65% | 1013.4 hPa | 0 mm | - | 625 W/m² | - |
| 1777998029 | 23.33° C | 61% | 1013.1 hPa | 0 mm | - | 441 W/m² | - |
| 1777997726 | 23.33° C | 63% | 1012.9 hPa | 0 mm | - | 691 W/m² | - |
| 1777997424 | 23.33° C | 64% | 1013 hPa | 0 mm | - | 687 W/m² | - |
| 1777997121 | 23.33° C | 62% | 1013.1 hPa | 0 mm | - | 816 W/m² | - |
| 1777996818 | 22.78° C | 64% | 1012.9 hPa | 0 mm | - | 840 W/m² | - |
| 1777996514 | 23.33° C | 62% | 1012.9 hPa | 0 mm | - | 799 W/m² | - |
| 1777996211 | 22.78° C | 64% | 1013.1 hPa | 0 mm | - | 842 W/m² | - |
| 1777995907 | 22.78° C | 66% | 1013.1 hPa | 0 mm | - | 837 W/m² | - |
| 1777995603 | 22.78° C | 64% | 1013.1 hPa | 0 mm | - | 807 W/m² | - |
| 1777995301 | 22.22° C | 65% | 1013.1 hPa | 0 mm | - | 815 W/m² | - |
| 1777994997 | 21.67° C | 69% | 1013.1 hPa | 0 mm | - | 800 W/m² | - |
| 1777994694 | 21.67° C | 68% | 1013.2 hPa | 0 mm | - | 821 W/m² | - |
| 1777994389 | 22.22° C | 69% | 1013.3 hPa | 0 mm | - | 796 W/m² | - |
| 1777994080 | 22.22° C | 67% | 1013.4 hPa | 0 mm | - | 790 W/m² | - |
| 1777993778 | 21.67° C | 68% | 1013.2 hPa | 0 mm | - | 761 W/m² | - |
| 1777993474 | 21.67° C | 70% | 1013.4 hPa | 0 mm | - | 731 W/m² | - |
| 1777993173 | 22.22° C | 69% | 1013.5 hPa | 0 mm | - | 720 W/m² | - |
| 1777992872 | 21.67° C | 71% | 1013.4 hPa | 0 mm | - | 771 W/m² | - |
| 1777992570 | 21.11° C | 72% | 1013.5 hPa | 0 mm | - | 766 W/m² | - |
| 1777992268 | 21.11° C | 72% | 1013.4 hPa | 0 mm | - | 738 W/m² | - |
| 1777991964 | 20.56° C | 75% | 1013.6 hPa | 0 mm | - | 691 W/m² | - |
| 1777991656 | 20.56° C | 74% | 1013.3 hPa | 0 mm | - | 665 W/m² | - |
| 1777991352 | 20.56° C | 76% | 1013.2 hPa | 0 mm | - | 666 W/m² | - |
| 1777991050 | 20.56° C | 75% | 1013 hPa | 0 mm | - | 638 W/m² | - |
* Rain latest hour (hover to see other rain measurements)
** Current wind speed in m/s (hover to see current wind gust speed)